TimeEDT,TemperatureF,Dew PointF,Humidity,Sea Level PressureIn,VisibilityMPH,Wind Direction,Wind SpeedMPH,Gust SpeedMPH,PrecipitationIn,Events,Conditions,WindDirDegrees,DateUTC
12:14 AM,37.4,33.6,86,30.15,10.0,Calm,Calm,-,N/A,,Clear,0,2012-10-08 04:14:00
12:34 AM,36.5,33.3,88,30.15,10.0,SW,3.5,-,N/A,,Clear,220,2012-10-08 04:34:00
12:54 AM,34.7,31.3,87,30.15,10.0,Calm,Calm,-,N/A,,Scattered Clouds,0,2012-10-08 04:54:00
1:14 AM,35.4,32.5,89,30.15,10.0,Calm,Calm,-,N/A,,Overcast,0,2012-10-08 05:14:00
1:34 AM,36.0,33.3,90,30.15,10.0,Calm,Calm,-,N/A,,Overcast,0,2012-10-08 05:34:00
1:53 AM,35.6,32.9,90,30.16,10.0,SSW,3.5,-,N/A,,Overcast,210,2012-10-08 05:53:00
2:14 AM,35.8,33.3,91,30.16,10.0,SSW,4.6,-,N/A,,Overcast,200,2012-10-08 06:14:00
2:34 AM,35.8,33.1,90,30.16,10.0,SSW,3.5,-,N/A,,Overcast,210,2012-10-08 06:34:00
2:53 AM,35.6,32.9,90,30.17,10.0,SSW,3.5,-,N/A,,Overcast,210,2012-10-08 06:53:00
3:14 AM,35.8,33.3,91,30.17,10.0,SSW,5.8,-,N/A,,Overcast,210,2012-10-08 07:14:00
3:34 AM,36.0,33.4,91,30.16,10.0,SW,4.6,-,N/A,,Overcast,220,2012-10-08 07:34:00
3:53 AM,36.5,33.8,90,30.16,10.0,SSW,3.5,-,N/A,,Overcast,210,2012-10-08 07:53:00
4:14 AM,35.4,32.7,90,30.16,10.0,SSW,3.5,-,N/A,,Mostly Cloudy,210,2012-10-08 08:14:00
4:34 AM,34.2,32.0,92,30.15,10.0,SSW,4.6,-,N/A,,Scattered Clouds,210,2012-10-08 08:34:00
4:54 AM,33.8,32.0,93,30.16,10.0,SSW,3.5,-,N/A,,Clear,210,2012-10-08 08:54:00
5:14 AM,33.3,31.5,93,30.16,10.0,South,4.6,-,N/A,,Clear,190,2012-10-08 09:14:00
5:33 AM,32.9,31.1,93,30.16,10.0,SSW,4.6,-,N/A,,Clear,200,2012-10-08 09:33:00
5:54 AM,32.7,31.1,94,30.16,10.0,SSW,3.5,-,N/A,,Clear,210,2012-10-08 09:54:00
6:14 AM,32.2,30.4,93,30.16,10.0,SSW,4.6,-,N/A,,Clear,200,2012-10-08 10:14:00
6:34 AM,32.0,30.2,93,30.17,10.0,SSW,4.6,-,N/A,,Clear,200,2012-10-08 10:34:00
6:54 AM,32.0,29.8,92,30.17,10.0,SSW,4.6,-,N/A,,Clear,210,2012-10-08 10:54:00
7:14 AM,32.0,29.8,92,30.18,10.0,SW,3.5,-,N/A,,Clear,220,2012-10-08 11:14:00
7:34 AM,31.8,29.3,90,30.18,10.0,SSW,3.5,-,N/A,,Clear,200,2012-10-08 11:34:00
7:54 AM,32.0,29.3,90,30.19,10.0,Calm,Calm,-,N/A,,Clear,0,2012-10-08 11:54:00
8:13 AM,32.0,29.3,90,30.19,10.0,Calm,Calm,-,N/A,,Clear,0,2012-10-08 12:13:00
8:34 AM,32.7,29.8,89,30.19,10.0,SSW,3.5,-,N/A,,Clear,210,2012-10-08 12:34:00
8:54 AM,34.3,31.1,88,30.20,10.0,SSW,4.6,-,N/A,,Clear,210,2012-10-08 12:54:00
9:13 AM,36.0,31.6,84,30.21,10.0,SSW,5.8,-,N/A,,Clear,210,2012-10-08 13:13:00
9:34 AM,38.3,32.0,78,30.20,10.0,SSW,6.9,-,N/A,,Clear,210,2012-10-08 13:34:00
9:53 AM,40.5,32.0,72,30.20,10.0,SSW,8.1,-,N/A,,Clear,210,2012-10-08 13:53:00
10:14 AM,42.8,32.0,66,30.20,10.0,SSW,8.1,-,N/A,,Clear,200,2012-10-08 14:14:00
10:34 AM,44.1,31.8,62,30.20,10.0,SSW,8.1,-,N/A,,Clear,200,2012-10-08 14:34:00
10:53 AM,45.7,32.0,59,30.20,10.0,SSW,8.1,-,N/A,,Clear,200,2012-10-08 14:53:00
11:14 AM,47.8,31.8,54,30.20,10.0,SSW,9.2,-,N/A,,Clear,200,2012-10-08 15:14:00
11:34 AM,48.9,30.2,48,30.20,10.0,SSW,12.7,-,N/A,,Clear,210,2012-10-08 15:34:00
11:54 AM,49.8,28.9,45,30.20,10.0,SSW,10.4,16.1,N/A,,Clear,200,2012-10-08 15:54:00
12:14 PM,50.4,28.4,43,30.19,10.0,SW,9.2,17.3,N/A,,Clear,220,2012-10-08 16:14:00
12:34 PM,51.3,28.9,42,30.19,10.0,WSW,11.5,-,N/A,,Clear,240,2012-10-08 16:34:00
12:54 PM,51.8,27.7,39,30.19,10.0,South,11.5,18.4,N/A,,Clear,180,2012-10-08 16:54:00
1:14 PM,52.3,28.6,40,30.18,10.0,South,6.9,17.3,N/A,,Clear,190,2012-10-08 17:14:00
1:33 PM,52.7,28.0,39,30.17,10.0,SW,9.2,17.3,N/A,,Clear,220,2012-10-08 17:33:00
1:54 PM,53.2,28.9,39,30.16,10.0,SSW,13.8,-,N/A,,Clear,210,2012-10-08 17:54:00
2:14 PM,53.4,27.7,37,30.15,10.0,WSW,9.2,-,N/A,,Clear,240,2012-10-08 18:14:00
2:33 PM,53.8,27.9,37,30.13,10.0,South,11.5,17.3,N/A,,Clear,190,2012-10-08 18:33:00
2:54 PM,54.1,27.9,36,30.12,10.0,SSW,9.2,-,N/A,,Clear,210,2012-10-08 18:54:00
3:14 PM,54.5,28.2,36,30.12,10.0,South,9.2,-,N/A,,Clear,190,2012-10-08 19:14:00
3:33 PM,54.9,27.5,35,30.12,10.0,SSW,10.4,16.1,N/A,,Clear,210,2012-10-08 19:33:00
3:54 PM,54.3,27.1,35,30.11,10.0,SSW,8.1,-,N/A,,Clear,200,2012-10-08 19:54:00
4:14 PM,54.5,27.3,35,30.10,10.0,SSW,5.8,-,N/A,,Clear,200,2012-10-08 20:14:00
4:34 PM,55.0,27.0,34,30.10,10.0,SW,12.7,17.3,N/A,,Clear,220,2012-10-08 20:34:00
4:54 PM,54.9,27.1,34,30.10,10.0,South,10.4,-,N/A,,Clear,170,2012-10-08 20:54:00
5:14 PM,54.5,26.8,34,30.09,10.0,SW,10.4,-,N/A,,Clear,220,2012-10-08 21:14:00
5:34 PM,54.3,26.8,35,30.09,10.0,South,11.5,-,N/A,,Clear,190,2012-10-08 21:34:00
5:54 PM,53.8,27.0,36,30.08,10.0,South,10.4,18.4,N/A,,Clear,190,2012-10-08 21:54:00
6:14 PM,53.2,26.8,36,30.08,10.0,South,8.1,-,N/A,,Clear,190,2012-10-08 22:14:00
6:34 PM,52.3,26.8,37,30.08,10.0,South,9.2,-,N/A,,Clear,190,2012-10-08 22:34:00
6:54 PM,50.2,27.7,42,30.08,10.0,South,6.9,-,N/A,,Clear,180,2012-10-08 22:54:00
7:13 PM,47.7,29.3,49,30.08,10.0,South,5.8,-,N/A,,Clear,180,2012-10-08 23:13:00
7:34 PM,45.9,29.1,52,30.08,10.0,South,3.5,-,N/A,,Clear,180,2012-10-08 23:34:00
7:54 PM,45.0,29.1,54,30.08,10.0,South,3.5,-,N/A,,Clear,170,2012-10-08 23:54:00
8:13 PM,43.2,29.3,58,30.08,10.0,South,3.5,-,N/A,,Clear,170,2012-10-09 00:13:00
8:34 PM,42.1,29.5,61,30.09,10.0,South,3.5,-,N/A,,Clear,170,2012-10-09 00:34:00
8:54 PM,42.1,30.2,63,30.09,10.0,Calm,Calm,-,N/A,,Clear,0,2012-10-09 00:54:00
9:14 PM,40.6,29.7,65,30.09,10.0,South,3.5,-,N/A,,Clear,170,2012-10-09 01:14:00
9:34 PM,40.5,29.3,64,30.09,10.0,South,4.6,-,N/A,,Clear,170,2012-10-09 01:34:00
9:54 PM,39.6,29.8,68,30.10,10.0,South,3.5,-,N/A,,Clear,170,2012-10-09 01:54:00
10:14 PM,39.4,29.3,67,30.10,10.0,South,4.6,-,N/A,,Clear,170,2012-10-09 02:14:00
10:34 PM,39.2,29.5,68,30.10,10.0,South,3.5,-,N/A,,Clear,180,2012-10-09 02:34:00
10:54 PM,38.7,30.0,71,30.10,10.0,Calm,Calm,-,N/A,,Clear,0,2012-10-09 02:54:00
11:14 PM,39.2,29.3,68,30.10,10.0,South,3.5,-,N/A,,Clear,170,2012-10-09 03:14:00
11:54 PM,38.3,30.0,72,30.10,10.0,South,4.6,-,N/A,,Clear,180,2012-10-09 03:54:00